W3ZTB Weather Reports


time (UTC)temp
F
wind
direction
speed
knots
gust
knots
rain 1hr
in
rain 24hr
in
rain mn
in
humidity
%
barometer
mb
20260507085508 52 31 0.9 3.5 0.00 0.36 0.00 51 1011.7
20260507085009 52 324 1.7 6.1 0.00 0.36 0.00 50 1011.8
20260507084528 52 41 2.6 6.1 0.00 0.36 0.00 49 1011.6
20260507084005 52 321 2.6 7.0 0.00 0.36 0.00 50 1011.7
20260507083503 53 352 2.6 7.0 0.00 0.36 0.00 50 1011.7
20260507083012 53 6 3.5 7.0 0.00 0.36 0.00 49 1011.6
20260507082504 53 327 3.5 6.1 0.00 0.36 0.00 49 1011.6
20260507082006 53 319 3.5 7.8 0.00 0.36 0.00 49 1011.7
20260507081535 53 65 2.6 10.4 0.00 0.36 0.00 49 1011.7
20260507081004 53 8 2.6 11.3 0.00 0.36 0.00 49 1011.7
20260507080511 53 333 4.3 11.3 0.00 0.36 0.00 49 1011.7
20260507080023 53 336 3.5 12.2 0.00 0.36 0.00 49 1011.7
20260507075509 53 20 3.5 12.2 0.00 0.36 0.00 48 1011.6
20260507075010 53 330 5.2 10.4 0.00 0.36 0.00 48 1011.7
20260507074525 53 304 4.3 10.4 0.00 0.36 0.00 49 1011.6
20260507074013 53 321 7.0 10.4 0.00 0.36 0.00 48 1011.7
20260507073510 54 335 6.1 9.6 0.00 0.36 0.00 48 1011.8
20260507073025 54 12 3.5 8.7 0.00 0.36 0.00 49 1011.8
20260507072004 54 324 3.5 9.6 0.00 0.36 0.00 49 1011.9
20260507071514 54 324 3.5 7.8 0.00 0.36 0.00 49 1011.9
20260507071004 54 292 2.6 7.8 0.00 0.36 0.00 50 1011.9
20260507070512 54 28 4.3 7.0 0.00 0.36 0.00 50 1011.9
20260507070018 54 319 1.7 7.8 0.00 0.36 0.00 54 1011.9
20260507065511 54 1 1.7 7.8 0.00 0.36 0.00 54 1012.0
20260507065004 54 335 3.5 6.1 0.00 0.36 0.00 55 1011.8
20260507064521 54 3 2.6 5.2 0.00 0.36 0.00 58 1011.8
20260507064006 54 338 1.7 5.2 0.00 0.36 0.00 59 1011.9
20260507063508 54 320 2.6 7.0 0.00 0.36 0.00 57 1011.7
20260507063024 54 340 3.5 8.7 0.00 0.36 0.00 57 1011.7
20260507062510 54 323 4.3 8.7 0.00 0.36 0.00 58 1011.8
20260507062012 54 321 2.6 9.6 0.00 0.36 0.00 57 1011.9
20260507061528 55 324 4.3 10.4 0.00 0.36 0.00 59 1011.8
20260507061002 55 13 5.2 10.4 0.00 0.36 0.00 61 1011.8
20260507060505 55 11 6.1 10.4 0.00 0.36 0.00 62 1011.7
20260507060016 55 321 5.2 9.6 0.00 0.36 0.00 66 1011.7
20260507055506 55 305 1.7 10.4 0.00 0.36 0.00 70 1011.8
20260507055008 55 320 6.1 12.2 0.00 0.36 0.00 70 1011.6
20260507054519 55 333 4.3 12.2 0.00 0.36 0.00 70 1011.6
20260507054009 55 344 2.6 8.7 0.00 0.36 0.00 71 1011.5
20260507053509 55 336 4.3 7.8 0.00 0.36 0.00 71 1011.6
20260507053024 55 30 4.3 7.0 0.00 0.36 0.00 71 1011.6
20260507052507 55 321 2.6 6.1 0.00 0.36 0.00 73 1011.5
20260507052003 55 26 2.6 5.2 0.00 0.36 0.00 74 1011.6
20260507051509 55 72 1.7 4.3 0.00 0.36 0.00 76 1011.6
20260507051004 55 40 0.9 4.3 0.00 0.36 0.00 77 1011.7
20260507050502 55 34 1.7 4.3 0.00 0.36 0.00 76 1011.8
20260507050014 55 37 1.7 4.3 0.00 0.36 0.00 75 1011.5
20260507045505 55 354 1.7 6.1 0.00 0.36 0.00 73 1011.4
20260507045006 55 70 1.7 7.8 0.00 0.36 0.00 72 1011.7
20260507044516 55 352 3.5 9.6 0.00 0.36 0.00 70 1011.7
20260507044007 55 334 5.2 9.6 0.00 0.36 0.00 72 1011.9
20260507043507 56 331 3.5 8.7 0.00 0.36 0.00 73 1012.0
20260507043022 56 334 3.5 7.8 0.00 0.36 0.00 72 1011.8
20260507042509 56 34 0.9 7.0 0.00 0.36 0.00 70 1011.7
20260507042010 56 336 3.5 7.0 0.00 0.36 0.00 67 1011.6
20260507041539 56 314 2.6 8.7 0.00 0.36 0.00 68 1011.5
20260507041007 56 346 3.5 10.4 0.00 0.36 0.00 67 1011.4
20260507040504 56 322 5.2 10.4 0.00 0.36 0.00 67 1011.4
20260507040011 57 357 3.5 9.6 0.00 0.36 0.00 68 1011.4
20260507035503 57 339 3.5 9.6 0.00 0.36 0.36 68 1011.5
20260507035009 57 334 5.2 7.8 0.00 0.36 0.36 68 1011.4
20260507034514 57 324 2.6 7.0 0.00 0.36 0.36 68 1011.5
20260507034006 57 319 3.5 7.0 0.00 0.36 0.36 69 1011.3
20260507033507 57 348 2.6 7.8 0.00 0.36 0.36 70 1011.3
20260507033018 57 355 4.3 11.3 0.00 0.36 0.36 71 1011.1
20260507032508 57 330 3.5 11.3 0.00 0.36 0.36 70 1011.3
20260507032010 57 323 3.5 11.3 0.00 0.36 0.36 71 1010.9
20260507031520 57 321 5.2 11.3 0.00 0.36 0.36 71 1010.5
20260507031009 57 291 3.5 11.3 0.00 0.36 0.36 72 1010.8
20260507030025 57 335 6.1 12.2 0.00 0.36 0.36 73 1011.1
20260507025515 57 335 5.2 12.2 0.00 0.36 0.36 72 1011.0
20260507025002 57 309 6.1 11.3 0.00 0.36 0.36 72 1010.9
20260507024511 57 330 6.1 11.3 0.00 0.36 0.36 71 1010.8
20260507024006 58 323 7.0 11.3 0.00 0.36 0.36 71 1011.0
20260507023503 58 51 3.5 12.2 0.00 0.36 0.36 72 1010.9
20260507023003 58 295 7.0 12.2 0.00 0.36 0.36 71 1010.9
20260507022503 58 319 3.5 9.6 0.00 0.36 0.36 72 1011.0
20260507022003 58 328 3.5 6.1 0.00 0.36 0.36 73 1011.0
20260507021503 58 4 0.9 9.6 0.00 0.36 0.36 73 1010.8
20260507021002 58 359 4.3 9.6 0.00 0.36 0.36 73 1010.8
20260507020502 58 355 1.7 7.8 0.00 0.36 0.36 74 1010.8
20260507020006 59 319 2.6 7.8 0.00 0.36 0.36 74 1010.9
20260507015502 59 295 4.3 7.8 0.00 0.36 0.36 73 1010.8
20260507015002 59 291 4.3 10.4 0.00 0.36 0.36 73 1010.9
20260507014516 59 257 6.1 10.4 0.00 0.36 0.36 72 1011.0
20260507014003 60 303 3.5 7.8 0.00 0.36 0.36 72 1010.8
20260507013502 60 1 2.6 7.8 0.00 0.36 0.36 72 1010.9
20260507013031 60 300 3.5 7.8 0.00 0.36 0.36 72 1011.0
20260507012507 60 6 3.5 7.0 0.00 0.36 0.36 72 1010.9
20260507012004 60 271 2.6 7.0 0.00 0.36 0.36 72 1011.0
20260507011503 60 293 2.6 7.8 0.00 0.36 0.36 72 1010.9
20260507011001 60 327 5.2 7.8 0.00 0.36 0.36 72 1010.9
20260507010502 60 337 2.6 7.8 0.00 0.36 0.36 73 1010.8
20260507010004 60 327 4.3 7.8 0.00 0.36 0.36 73 1010.7
20260507005504 61 326 2.6 5.2 0.00 0.36 0.36 73 1010.6
20260507005002 61 302 2.6 5.2 0.00 0.36 0.36 73 1010.6
20260507004507 61 298 2.6 5.2 0.00 0.36 0.36 73 1010.4
20260507004002 61 303 0.9 6.1 0.00 0.36 0.36 73 1010.5
20260507003503 61 285 1.7 7.0 0.00 0.36 0.36 73 1010.4
20260507003009 61 305 4.3 7.0 0.00 0.36 0.36 73 1010.5
20260507002502 61 311 2.6 7.0 0.00 0.36 0.36 73 1010.2
20260507002007 61 329 2.6 7.8 0.00 0.36 0.36 73 1009.9
20260507001517 61 314 4.3 7.8 0.00 0.36 0.36 73 1009.9
20260507001006 61 21 3.5 8.7 0.00 0.36 0.36 73 1009.7
20260507000014 62 327 5.2 10.4 0.00 0.36 0.36 73 1009.5
20260506235503 62 338 2.6 10.4 0.00 0.36 0.36 74 1009.4
20260506235005 62 302 4.3 9.6 0.00 0.36 0.36 74 1009.3
20260506234504 62 304 3.5 9.6 0.00 0.36 0.36 74 1009.2
20260506234001 62 341 3.5 10.4 0.00 0.36 0.36 75 1009.0
20260506233503 62 352 5.2 10.4 0.00 0.36 0.36 75 1008.9
20260506233023 63 321 5.2 8.7 0.00 0.36 0.36 75 1008.9
20260506232502 63 335 4.3 7.0 0.00 0.36 0.36 76 1008.6
20260506232007 63 340 3.5 8.7 0.00 0.36 0.36 76 1008.7
20260506231514 63 299 4.3 10.4 0.00 0.36 0.36 76 1008.6
20260506231007 64 329 4.3 10.4 0.00 0.36 0.36 77 1008.7
20260506230506 64 319 2.6 7.8 0.00 0.36 0.36 77 1008.6
20260506230018 64 312 4.3 7.8 0.00 0.36 0.36 77 1008.5
20260506225509 64 323 2.6 7.8 0.00 0.36 0.36 78 1008.7
20260506225005 65 336 4.3 8.7 0.00 0.36 0.36 78 1008.5
20260506224503 65 299 5.2 8.7 0.00 0.36 0.36 79 1008.4
20260506224004 65 8 5.2 8.7 0.00 0.36 0.36 81 1008.4
20260506223006 66 291 1.7 3.5 0.00 0.36 0.36 84 1008.0
20260506222002 66 296 2.6 5.2 0.00 0.36 0.36 84 1008.0
20260506221509 66 292 2.6 5.2 0.00 0.36 0.36 84 1007.9
20260506220014 66 240 2.6 6.1 0.00 0.36 0.36 83 1007.7
20260506214520 66 246 3.5 8.7 0.00 0.36 0.36 82 1007.5
20260506213509 67 219 5.2 8.7 0.00 0.36 0.36 81 1007.4
20260506213003 67 211 2.6 7.0 0.00 0.36 0.36 80 1007.4
20260506211505 67 226 1.7 4.3 0.00 0.36 0.36 80 1007.2
20260506204518 67 262 2.6 5.2 0.00 0.36 0.36 79 1007.2
20260506203023 67 160 2.6 7.8 0.00 0.36 0.36 79 1007.1
20260506202509 67 209 4.3 7.8 0.00 0.36 0.36 78 1006.9
20260506200007 67 266 2.6 6.1 0.00 0.36 0.36 81 1007.2
20260506194514 66 280 3.5 7.0 0.00 0.36 0.36 83 1007.2
20260506194009 65 226 3.5 6.1 0.00 0.36 0.36 83 1007.3
20260506193020 65 278 3.5 7.0 0.00 0.36 0.36 83 1007.4
20260506191524 64 247 2.6 6.1 0.00 0.36 0.36 84 1007.4
20260506184511 63 250 1.7 6.1 0.00 0.36 0.36 86 1007.6
20260506181529 62 256 2.6 8.7 0.00 0.36 0.36 89 1007.7
20260506181012 62 249 4.3 8.7 0.00 0.36 0.36 89 1007.7
20260506180034 62 212 2.6 9.6 0.00 0.36 0.36 90 1007.9
20260506173010 62 207 4.3 13.0 0.00 0.36 0.36 89 1007.8
20260506172504 62 229 4.3 13.0 0.00 0.36 0.36 88 1007.8
20260506172003 62 233 4.3 11.3 0.00 0.36 0.36 87 1007.8
20260506171508 62 197 4.3 11.3 0.00 0.36 0.36 87 1007.8
20260506171007 62 228 6.1 14.8 0.00 0.36 0.36 86 1007.8
20260506170504 62 237 4.3 14.8 0.00 0.36 0.36 87 1007.8
20260506170008 62 217 5.2 12.2 0.00 0.36 0.36 86 1007.9
20260506165503 62 195 4.3 8.7 0.00 0.36 0.36 87 1007.9
20260506165003 62 238 1.7 5.2 0.00 0.36 0.36 87 1007.8
20260506164508 62 231 1.7 5.2 0.00 0.36 0.36 87 1007.8
20260506164002 62 242 2.6 8.7 0.00 0.36 0.36 87 1007.8
20260506163018 62 277 2.6 9.6 0.00 0.36 0.36 87 1007.9
20260506162504 62 207 5.2 9.6 0.00 0.36 0.36 87 1007.9
20260506162007 62 199 4.3 10.4 0.00 0.36 0.36 87 1007.9
20260506161004 61 264 1.7 7.8 0.00 0.36 0.36 88 1007.9
20260506160505 61 243 4.3 7.8 0.01 0.36 0.36 88 1007.9
20260506160015 61 207 2.6 9.6 0.02 0.36 0.36 89 1007.8
20260506155506 61 214 2.6 9.6 0.03 0.36 0.36 89 1007.9
20260506155003 61 219 2.6 7.0 0.04 0.36 0.36 89 1008.0
20260506154514 61 211 2.6 8.7 0.05 0.36 0.36 89 1008.0
20260506154004 61 223 4.3 8.7 0.06 0.36 0.36 89 1008.0
20260506153503 61 247 4.3 7.8 0.08 0.36 0.36 89 1008.0
20260506153010 61 179 0.9 7.0 0.09 0.36 0.36 90 1007.9
20260506152503 61 201 2.6 7.8 0.10 0.36 0.36 90 1007.9
20260506152007 61 146 2.6 7.8 0.13 0.36 0.36 90 1007.8
20260506151004 61 217 1.7 7.0 0.17 0.36 0.36 90 1007.8
20260506150503 60 204 4.3 7.8 0.17 0.35 0.35 90 1008.0
20260506145504 60 223 3.5 7.8 0.15 0.33 0.33 90 1008.1
20260506145004 60 227 3.5 8.7 0.15 0.32 0.32 90 1008.2
20260506144516 60 179 2.6 8.7 0.14 0.31 0.31 90 1008.4
20260506144005 60 152 4.3 9.6 0.14 0.30 0.30 90 1008.6
20260506143506 60 205 3.5 10.4 0.13 0.28 0.28 89 1008.7
20260506143014 60 254 5.2 10.4 0.14 0.27 0.27 89 1008.8
20260506142502 61 210 5.2 9.6 0.14 0.26 0.26 89 1008.9
20260506142007 61 222 3.5 8.7 0.12 0.23 0.23 88 1008.9
20260506141512 61 212 3.5 7.8 0.11 0.21 0.21 88 1008.9
20260506141002 61 196 3.5 7.0 0.10 0.19 0.19 88 1008.7
20260506140507 61 274 2.6 7.0 0.10 0.18 0.18 88 1008.6
20260506140019 61 211 0.9 6.1 0.10 0.18 0.18 88 1008.5
20260506135503 61 196 1.7 5.2 0.10 0.18 0.18 88 1008.2
20260506135006 61 220 1.7 6.1 0.09 0.17 0.17 88 1008.2
20260506134539 61 233 1.7 6.1 0.09 0.17 0.17 89 1008.2
20260506134008 61 213 1.7 6.1 0.08 0.16 0.16 88 1008.2
20260506133504 61 233 0.9 5.2 0.08 0.15 0.15 88 1008.1
20260506133015 61 225 0.9 7.0 0.06 0.13 0.13 87 1008.1
20260506132506 61 235 2.6 9.6 0.05 0.12 0.12 86 1008.3
20260506132007 61 241 2.6 9.6 0.05 0.11 0.11 86 1008.4
20260506131514 61 201 3.5 9.6 0.04 0.10 0.10 85 1008.5
20260506131003 61 245 3.5 9.6 0.04 0.09 0.09 85 1008.5
20260506130504 61 205 4.3 10.4 0.03 0.08 0.08 85 1008.4
20260506130015 61 226 4.3 10.4 0.04 0.08 0.08 85 1008.3
20260506125503 61 223 5.2 10.4 0.04 0.08 0.08 84 1008.2
20260506125004 61 214 3.5 10.4 0.05 0.08 0.08 84 1008.2
20260506124518 62 219 5.2 10.4 0.06 0.08 0.08 84 1008.4
20260506124005 62 207 4.3 9.6 0.06 0.08 0.08 83 1008.5
20260506123504 62 246 4.3 7.8 0.06 0.07 0.07 83 1008.5
20260506123018 62 202 2.6 8.7 0.06 0.07 0.07 83 1008.5
20260506122508 62 140 4.3 9.6 0.07 0.07 0.07 83 1008.6
20260506122006 62 226 4.3 9.6 0.06 0.06 0.06 82 1008.7
20260506121518 62 211 4.3 9.6 0.06 0.06 0.06 82 1008.8
20260506121006 62 215 5.2 12.2 0.05 0.05 0.05 81 1008.8
20260506120507 62 182 5.2 12.2 0.05 0.05 0.05 81 1008.9
20260506120021 62 200 5.2 10.4 0.04 0.04 0.04 80 1009.0
20260506115502 63 241 3.5 9.6 0.04 0.04 0.04 79 1009.0
20260506115005 63 240 5.2 10.4 0.03 0.03 0.03 78 1009.0
20260506114524 63 231 4.3 10.4 0.02 0.02 0.02 76 1008.9
20260506113505 64 249 4.3 7.8 0.01 0.01 0.01 73 1008.7
20260506113005 64 248 2.6 7.8 0.01 0.01 0.01 72 1008.5
20260506112503 65 205 2.6 9.6 0.00 0.00 0.00 70 1008.3
20260506111505 66 283 3.5 9.6 0.00 0.00 0.00 68 1008.3
20260506111002 66 262 2.6 9.6 0.00 0.00 0.00 67 1008.3
20260506110502 66 195 3.5 6.1 0.00 0.00 0.00 66 1008.2
20260506110012 66 226 1.7 8.7 0.00 0.00 0.00 66 1008.1
20260506105503 67 231 3.5 10.4 0.00 0.00 0.00 64 1008.0
20260506105003 67 104 4.3 11.3 0.00 0.00 0.00 63 1008.0
20260506104514 67 233 6.1 11.3 0.00 0.00 0.00 62 1007.9
20260506104006 67 232 1.7 13.0 0.00 0.00 0.00 62 1007.8
20260506103508 67 265 4.3 13.0 0.00 0.00 0.00 61 1007.8
20260506103026 67 224 4.3 12.2 0.00 0.00 0.00 61 1007.7
20260506102507 67 245 3.5 7.0 0.00 0.00 0.00 60 1007.7
20260506102003 67 127 1.7 7.8 0.00 0.00 0.00 60 1007.6
20260506101504 67 194 3.5 7.8 0.00 0.00 0.00 60 1007.6
20260506101002 67 245 2.6 7.0 0.00 0.00 0.00 60 1007.6
20260506100503 67 253 2.6 6.1 0.00 0.00 0.00 60 1007.5
20260506100007 68 255 4.3 8.7 0.00 0.00 0.00 59 1007.4
20260506095502 68 219 3.5 8.7 0.00 0.00 0.00 59 1007.4
20260506095005 68 232 4.3 8.7 0.00 0.00 0.00 59 1007.3
20260506094517 68 206 3.5 11.3 0.00 0.00 0.00 58 1007.1
20260506094004 68 226 5.2 13.9 0.00 0.00 0.00 58 1007.3
20260506093506 68 234 6.1 13.9 0.00 0.00 0.00 58 1007.3
20260506093016 68 228 4.3 11.3 0.00 0.00 0.00 58 1007.3
20260506092507 68 223 7.0 13.0 0.00 0.00 0.00 57 1007.4
20260506092007 68 235 5.2 13.9 0.00 0.00 0.00 57 1007.5
20260506091006 68 212 5.2 13.0 0.00 0.00 0.00 57 1007.5
20260506090502 69 172 6.1 13.0 0.00 0.00 0.00 56 1007.5
20260506090006 69 210 4.3 13.0 0.00 0.00 0.00 56 1007.6